Find Starlink 32108

NORAD ID: 59682 Int'l Des: 2024-086 Owner: SPXS Country: US Constellation: starlink operational
LEOCIRCULAR

当前视图

正在加载3D地球...

About Starlink 32108

Starlink 32108 (NORAD 59682) is a starlink constellation satellite (v2 mini) launched May 8, 2024 by SPXS of US. It operates in LEO, CIRCULAR orbit with a mass of 730.00 kg.

即将过境

Passes for default location (London). Set your location on the main map for personalized predictions.

高度历史

Loading altitude history...

两行轨道根数

1 59682U 24086A 26262.38787064 .00000071 00000-0 12120-4 0 9999
2 59682 43.0045 49.5994 0001251 271.1748 88.8960 15.27578758133682
Epoch: Sep 19, 2026 • Age: 30 hours

当前状态

高度 485.5 km
远地点 / 近地点 N/A
速度 7.63 km/s
星下点 36.49°N, 135.77°W
发射日期 May 8, 2024
运行时间 2.3 years
类型 internet

技术详情

分类 Payload
质量 730.00 kg
干质量 700.00 kg
长度 0.30 m
跨度 29.00 m
形状 ? Box + pan
制造商 SPXS
平台类型 Starlink V2M
阶段状态 In Orbit
所有者/国家 SPXS/US

Most Searched